Location: *
(43.0167°S, 179.9000°E)
Time: 20:41:14
(UTC+00:00)

Nadezhda 3 Rocket - Pass Details

Date: 12 August 2024
Orbit: 957 x 998 km, 82.9° (Epoch: 19 September)

Event Time Altitude Azimuth Distance (km) Brightness Sun altitude
Rises 17:56:58 0° 189° (S) 3,739 6.9 -11.4°
Reaches altitude 10° 17:59:32 10° 190° (S) 2,779 6.2 -11.0°
Maximum altitude 18:05:55 82° 275° (W) 1,003 4.0 -9.8°
Drops below altitude 10° 18:12:09 10° 2° (N) 2,716 6.5 -8.7°
Sets 18:14:38 0° 3° (N) 3,650 7.2 -8.3°
